Location: Unspecified
(0.0000°N, 0.0000°E)
Time: 07:56:36
(UTC+00:00)

N. Korean satellite - Pass Details

Date: 14 November 2017
Orbit: 460 x 514 km, 97.2° (Epoch: 20 November)

Event Time Altitude Azimuth Distance (km) Brightness Sun altitude
Rises 18:52:09 0° 187° (S) 2,490 10.5 -16.0°
Reaches altitude 10° 18:54:24 10° 200° (SSW) 1,608 9.7 -16.5°
Maximum altitude 18:57:22 27° 259° (W) 919 8.8 -17.2°
Drops below altitude 10° 19:00:18 10° 318° (NW) 1,598 9.5 -17.9°
Sets 19:02:32 0° 331° (NNW) 2,470 10.3 -18.5°
